Weather History for PABL - February, 2014

Change the Weather History Date:

Monday, February 24, 2014

  Actual Average (PASK) Record (PASK)
Temperature  
Mean Temperature 7 °F -  
Max Temperature 14 °F 6 °F 33 °F (2011)
Min Temperature 0 °F -2 °F -29 °F (2007)
Degree Days  
Heating Degree Days 58    
Moisture  
Dew Point -2 °F    
Average Humidity 69    
Maximum Humidity 85    
Minimum Humidity 57    
Precipitation  
Precipitation 0.00 in - - ()
Sea Level Pressure  
Sea Level Pressure 30.02 in    
Wind  
Wind Speed 9 mph (SSE)    
Max Wind Speed 16 mph    
Max Gust Speed 22 mph    
Visibility 10 miles    
Events      
Averages and records for this station are not official NWS values.
T = Trace of Precipitation, MM = Missing Value Source: NWS Daily Summary

Daily Weather History Graph

Daily Weather History Graph

Search for Another Location

Airport or City:

Trip Planner

Search our weather history database for the weather conditions in past years. The results will help you decide how hot, cold, wet, or windy it might be!

Date:

Astronomy

Feb. 24, 2014 Rise Set
Actual Time 9:15 AM AKST 6:41 PM AKST
Civil Twilight 8:22 AM AKST 7:34 PM AKST
Nautical Twilight 7:23 AM AKST 8:33 PM AKST
Astronomical Twilight 6:23 AM AKST 9:34 PM AKST
Moon 6:56 AM AKST (2/24) 12:25 PM AKST (2/24)
Length of Visible Light 11h 12m
Length of Day
9h 26m
Waning Crescent, 26% of the Moon is Illuminated
Feb 24
Waning Crescent
Feb 28
New
Mar 8
First Quarter
Mar 16
Full
Mar 23
Last Quarter

Hourly Weather History & Observations

Time (AKST) Temp. Windchill Dew Point Humidity Pressure Visibility Wind Dir Wind Speed Gust Speed Precip Events Conditions
12:16 AM 14.0 °F -2.0 °F 3.2 °F 62% 30.02 in 10.0 mi SSE 16.1 mph - N/A   Clear
12:36 AM 14.0 °F -0.2 °F 1.4 °F 57% 30.02 in 10.0 mi South 12.7 mph 21.9 mph N/A   Clear
12:56 AM 10.4 °F -1.5 °F -0.4 °F 62% 30.03 in 10.0 mi South 8.1 mph - N/A   Clear
1:16 AM 10.4 °F -2.4 °F 1.4 °F 67% 30.03 in 10.0 mi South 9.2 mph - N/A   Clear
1:36 AM 8.6 °F -4.7 °F -0.4 °F 67% 30.04 in 10.0 mi South 9.2 mph - N/A   Clear
1:56 AM 8.6 °F -6.3 °F -0.4 °F 67% 30.03 in 10.0 mi South 11.5 mph - N/A   Clear
2:16 AM 6.8 °F -4.8 °F -2.2 °F 67% 30.03 in 10.0 mi South 6.9 mph - N/A   Clear
2:36 AM 6.8 °F -7.8 °F -0.4 °F 72% 30.04 in 10.0 mi South 10.4 mph 16.1 mph N/A   Clear
2:56 AM 3.2 °F -12.2 °F -4.0 °F 72% 30.04 in 10.0 mi South 10.4 mph - N/A   Clear
3:16 AM 6.8 °F -6.9 °F -0.4 °F 72% 30.04 in 10.0 mi SSW 9.2 mph - N/A   Clear
3:36 AM 8.6 °F -6.3 °F 3.2 °F 79% 30.04 in 10.0 mi South 11.5 mph - N/A   Clear
3:56 AM 3.2 °F -7.8 °F -5.8 °F 66% 30.04 in 10.0 mi South 5.8 mph - N/A   Clear
4:16 AM 3.2 °F -13.1 °F -4.0 °F 72% 30.04 in 10.0 mi South 11.5 mph - N/A   Clear
4:36 AM 3.2 °F -12.2 °F -5.8 °F 66% 30.04 in 10.0 mi South 10.4 mph - N/A   Clear
4:56 AM 3.2 °F -11.3 °F -2.2 °F 78% 30.04 in 10.0 mi South 9.2 mph - N/A   Clear
5:16 AM 3.2 °F -10.3 °F -2.2 °F 78% 30.04 in 10.0 mi South 8.1 mph - N/A   Partly Cloudy
5:36 AM 1.4 °F -11.3 °F -4.0 °F 78% 30.04 in 10.0 mi SSE 6.9 mph - N/A   Clear
5:56 AM 1.4 °F -13.5 °F -5.8 °F 72% 30.04 in 10.0 mi SSE 9.2 mph - N/A   Clear
6:16 AM 1.4 °F -13.5 °F -5.8 °F 72% 30.04 in 10.0 mi SSE 9.2 mph - N/A   Clear
6:36 AM 1.4 °F -12.5 °F -5.8 °F 72% 30.04 in 10.0 mi SSE 8.1 mph - N/A   Clear
6:56 AM 3.2 °F -13.1 °F -2.2 °F 78% 30.04 in 10.0 mi SSE 11.5 mph - N/A   Clear
7:16 AM 3.2 °F -12.2 °F -5.8 °F 66% 30.04 in 10.0 mi SSE 10.4 mph - N/A   Clear
7:36 AM 3.2 °F -12.2 °F -4.0 °F 72% 30.04 in 10.0 mi SSE 10.4 mph - N/A   Clear
7:56 AM 3.2 °F -11.3 °F -2.2 °F 78% 30.04 in 10.0 mi South 9.2 mph - N/A   Clear
8:16 AM 3.2 °F -10.3 °F -4.0 °F 72% 30.05 in 10.0 mi South 8.1 mph - N/A   Clear
8:36 AM 3.2 °F -7.8 °F -2.2 °F 78% 30.05 in 10.0 mi South 5.8 mph - N/A   Clear
8:56 AM 3.2 °F -7.8 °F -5.8 °F 66% 30.05 in 10.0 mi South 5.8 mph - N/A   Clear
9:16 AM 1.4 °F -12.5 °F -5.8 °F 72% 30.05 in 10.0 mi SSE 8.1 mph - N/A   Clear
9:36 AM 3.2 °F -12.2 °F -2.2 °F 78% 30.05 in 10.0 mi South 10.4 mph - N/A   Clear
9:56 AM 5.0 °F -8.1 °F -2.2 °F 72% 30.05 in 10.0 mi South 8.1 mph - N/A   Clear
10:16 AM 5.0 °F -8.1 °F -2.2 °F 72% 30.06 in 10.0 mi South 8.1 mph - N/A   Clear
10:36 AM 6.8 °F -9.3 °F -2.2 °F 67% 30.05 in 10.0 mi South 12.7 mph - N/A   Clear
10:56 AM 6.8 °F -7.8 °F -4.0 °F 61% 30.05 in 10.0 mi South 10.4 mph - N/A   Clear
11:16 AM 6.8 °F -6.9 °F -0.4 °F 72% 30.05 in 10.0 mi South 9.2 mph - N/A   Clear
11:36 AM 6.8 °F -5.9 °F -2.2 °F 67% 30.05 in 10.0 mi South 8.1 mph - N/A   Clear
11:56 AM 8.6 °F -4.7 °F -2.2 °F 62% 30.05 in 10.0 mi South 9.2 mph - N/A   Clear
12:16 PM 8.6 °F -5.5 °F -0.4 °F 67% 30.05 in 10.0 mi South 10.4 mph - N/A   Clear
12:36 PM 10.4 °F -1.5 °F -0.4 °F 62% 30.05 in 10.0 mi SSE 8.1 mph - N/A   Clear
12:56 PM 10.4 °F -0.4 °F -0.4 °F 62% 30.05 in 10.0 mi South 6.9 mph - N/A   Clear
1:16 PM 10.4 °F 0.8 °F -0.4 °F 62% 30.05 in 10.0 mi South 5.8 mph - N/A   Clear
1:36 PM 10.4 °F 2.2 °F -0.4 °F 62% 30.05 in 10.0 mi SSE 4.6 mph - N/A   Clear
1:56 PM 12.2 °F 1.7 °F -0.4 °F 57% 30.04 in 10.0 mi South 6.9 mph - N/A   Clear
2:16 PM 12.2 °F 0.7 °F 1.4 °F 62% 30.04 in 10.0 mi South 8.1 mph - N/A   Clear
2:36 PM 12.2 °F -0.2 °F 1.4 °F 62% 30.04 in 10.0 mi South 9.2 mph - N/A   Clear
2:56 PM 12.2 °F 0.7 °F 1.4 °F 62% 30.04 in 10.0 mi South 8.1 mph - N/A   Clear
3:16 PM 12.2 °F -1.0 °F 1.4 °F 62% 30.03 in 10.0 mi South 10.4 mph - N/A   Clear
3:36 PM 12.2 °F 0.7 °F -0.4 °F 57% 30.03 in 10.0 mi SSE 8.1 mph - N/A   Clear
3:56 PM 12.2 °F 2.9 °F 1.4 °F 62% 30.02 in 10.0 mi South 5.8 mph - N/A   Clear
4:16 PM 12.2 °F 2.9 °F -0.4 °F 57% 30.02 in 10.0 mi South 5.8 mph - N/A   Clear
4:36 PM 12.2 °F 0.7 °F 1.4 °F 62% 30.01 in 10.0 mi South 8.1 mph - N/A   Clear
4:56 PM 12.2 °F 0.7 °F 1.4 °F 62% 30.01 in 10.0 mi South 8.1 mph - N/A   Clear
5:16 PM 10.4 °F 0.8 °F -0.4 °F 62% 30.00 in 10.0 mi SSE 5.8 mph - N/A   Clear
5:36 PM 10.4 °F -1.5 °F 1.4 °F 67% 30.00 in 10.0 mi South 8.1 mph - N/A   Clear
5:56 PM 8.6 °F -2.6 °F -0.4 °F 67% 30.00 in 10.0 mi South 6.9 mph - N/A   Clear
6:16 PM 8.6 °F 2.0 °F -0.4 °F 67% 29.98 in 10.0 mi SSE 3.5 mph - N/A   Clear
6:36 PM 5.0 °F -4.1 °F -2.2 °F 72% 29.98 in 10.0 mi South 4.6 mph - N/A   Clear
6:56 PM 3.2 °F -10.3 °F -5.8 °F 66% 29.99 in 10.0 mi South 8.1 mph - N/A   Clear
7:16 PM 3.2 °F -6.2 °F -4.0 °F 72% 29.98 in 10.0 mi SSE 4.6 mph - N/A   Clear
7:36 PM 3.2 °F -10.3 °F -2.2 °F 78% 29.99 in 10.0 mi South 8.1 mph - N/A   Clear
7:56 PM 1.4 °F -6.2 °F -5.8 °F 72% 29.98 in 10.0 mi ESE 3.5 mph - N/A   Clear
8:16 PM 3.2 °F - -0.4 °F 85% 29.99 in 10.0 mi Calm Calm - N/A   Clear
8:36 PM 1.4 °F -13.5 °F -5.8 °F 72% 29.99 in 10.0 mi SSE 9.2 mph - N/A   Clear
8:56 PM 1.4 °F -12.5 °F -5.8 °F 72% 29.98 in 10.0 mi ESE 8.1 mph - N/A   Clear
9:16 PM 1.4 °F -11.3 °F -4.0 °F 78% 29.98 in 10.0 mi East 6.9 mph - N/A   Clear
9:36 PM 1.4 °F -9.9 °F -5.8 °F 72% 29.98 in 10.0 mi SE 5.8 mph - N/A   Clear
9:56 PM 1.4 °F - -5.8 °F 72% 29.98 in 10.0 mi Calm Calm - N/A   Clear
10:16 PM 1.4 °F -14.5 °F -4.0 °F 78% 29.98 in 10.0 mi SE 10.4 mph - N/A   Clear
10:36 PM 1.4 °F -13.5 °F -5.8 °F 72% 29.99 in 10.0 mi SSE 9.2 mph - N/A   Clear
10:56 PM 1.4 °F -8.3 °F -5.8 °F 72% 29.99 in 10.0 mi SSE 4.6 mph - N/A   Clear
11:16 PM -0.4 °F - -5.8 °F 78% 29.99 in 10.0 mi Calm Calm - N/A   Clear
11:36 PM 1.4 °F - -5.8 °F 72% 29.99 in 10.0 mi Calm Calm - N/A   Clear
11:56 PM -0.4 °F -8.3 °F -7.6 °F 72% 29.99 in 10.0 mi South 3.5 mph - N/A   Clear